Weather History for Gary, IN

Change the Weather History Date:

Tuesday, February 11, 2014

  Actual Average Record
Temperature  
Mean Temperature 3 °F -  
Max Temperature 15 °F 35 °F 69 °F (1999)
Min Temperature -9 °F 15 °F -9 °F (2014)
Degree Days  
Heating Degree Days 62    
Moisture  
Dew Point -6 °F    
Average Humidity 72    
Maximum Humidity 93    
Minimum Humidity 41    
Precipitation  
Precipitation 0.00 in - - ()
Sea Level Pressure  
Sea Level Pressure 30.45 in    
Wind  
Wind Speed 4 mph (SW)    
Max Wind Speed 12 mph    
Max Gust Speed -    
Visibility 10 miles    
Events      
Averages and records for this station are not official NWS values.
T = Trace of Precipitation, MM = Missing Value Source: NWS Daily Summary

Daily Weather History Graph

Daily Weather History Graph

Search for Another Location

Airport:

Trip Planner

Search our weather history database for the weather conditions in past years. The results will help you decide how hot, cold, wet, or windy it might be!

Date:

Astronomy

Feb. 11, 2014 Rise Set
Actual Time 6:50 AM CST 5:18 PM CST
Civil Twilight 6:21 AM CST 5:46 PM CST
Nautical Twilight 5:48 AM CST 6:19 PM CST
Astronomical Twilight 5:16 AM CST 6:51 PM CST
Moon 2:37 PM CST (2/11) 4:28 AM CST (2/11)
Length of Visible Light 11h 25m
Length of Day
10h 28m
Waxing Gibbous, 91% of the Moon is Illuminated
Feb 11
Waxing Gibbous
Feb 14
Full
Feb 22
Last Quarter
Mar 1
New
Mar 8
First Quarter

Hourly Weather History & Observations

Time (CST) Temp. Windchill Dew Point Humidity Pressure Visibility Wind Dir Wind Speed Gust Speed Precip Events Conditions
12:15 AM 0.3 °F -9.5 °F -7.4 °F 70% 30.47 in 10.0 mi West 4.6 mph - N/A   Clear
12:35 AM -0.2 °F -8.1 °F -7.2 °F 72% 30.47 in 10.0 mi West 3.5 mph - N/A   Clear
12:55 AM -4.0 °F -12.4 °F -9.8 °F 76% 30.46 in 10.0 mi WSW 3.5 mph - N/A   Clear
1:15 AM -3.8 °F -12.2 °F -9.2 °F 78% 30.45 in 10.0 mi SW 3.5 mph - N/A   Clear
1:35 AM -4.5 °F -13.0 °F -9.8 °F 78% 30.45 in 10.0 mi West 3.5 mph - N/A   Clear
1:55 AM -4.9 °F -15.6 °F -9.9 °F 79% 30.45 in 10.0 mi West 4.6 mph - N/A   Clear
2:15 AM -6.2 °F -17.1 °F -12.5 °F 74% 30.45 in 10.0 mi West 4.6 mph - N/A   Clear
2:35 AM -5.3 °F -16.0 °F -10.7 °F 77% 30.45 in 10.0 mi West 4.6 mph - N/A   Clear
2:55 AM -1.7 °F -11.8 °F -6.9 °F 78% 30.45 in 10.0 mi West 4.6 mph - N/A   Clear
3:15 AM -3.1 °F -11.4 °F -9.0 °F 76% 30.45 in 10.0 mi West 3.5 mph - N/A   Clear
3:35 AM -6.2 °F -14.9 °F -12.1 °F 75% 30.45 in 7.0 mi West 3.5 mph - N/A   Clear
4:45 AM -5.8 °F -19.9 °F -13.0 °F 71% 30.46 in 10.0 mi West 6.9 mph - N/A   Clear
5:45 AM -7.6 °F - -13.0 °F 77% 30.47 in 10.0 mi Calm Calm - N/A   Clear
6:45 AM -9.4 °F - -14.8 °F 77% 30.49 in 7.0 mi Calm Calm - N/A   Clear
7:45 AM -0.4 °F -10.4 °F -5.8 °F 78% 30.51 in 7.0 mi West 4.6 mph - N/A   Clear
8:45 AM 3.2 °F -6.2 °F -2.2 °F 78% 30.52 in 10.0 mi West 4.6 mph - N/A   Clear
9:45 AM 8.6 °F - 3.2 °F 79% 30.52 in 10.0 mi Calm Calm - N/A   Clear
10:45 AM 14.0 °F 2.0 °F 12.2 °F 93% 30.52 in 10.0 mi SSW 9.2 mph - N/A   Clear
11:45 AM 15.8 °F 2.7 °F 1.4 °F 53% 30.51 in 10.0 mi SSW 11.5 mph - N/A   Clear
12:45 PM 15.8 °F 6.1 °F -0.4 °F 49% 30.49 in 10.0 mi SSW 6.9 mph - N/A   Clear
2:45 PM 15.8 °F 4.2 °F -4.0 °F 41% 30.45 in 10.0 mi WSW 9.2 mph - N/A   Clear
3:45 PM 15.8 °F 5.1 °F -4.0 °F 41% 30.45 in 10.0 mi WSW 8.1 mph - N/A   Clear
4:45 PM 14.0 °F 3.9 °F -4.0 °F 45% 30.44 in 10.0 mi South 6.9 mph - N/A   Clear
5:45 PM 10.4 °F 2.2 °F -4.0 °F 52% 30.45 in 10.0 mi South 4.6 mph - N/A   Clear
6:45 PM 8.6 °F 0.1 °F -4.0 °F 57% 30.43 in 10.0 mi South 4.6 mph - N/A   Clear
7:45 PM 3.2 °F -4.2 °F -2.2 °F 78% 30.43 in 10.0 mi South 3.5 mph - N/A   Clear
8:15 PM 1.9 °F - -4.2 °F 76% 30.42 in 10.0 mi Calm Calm - N/A   Clear
8:35 PM 0.7 °F -7.1 °F -5.1 °F 77% 30.42 in 10.0 mi SE 3.5 mph - N/A   Clear
8:45 PM -0.4 °F -10.4 °F -7.6 °F 72% 30.43 in 10.0 mi SSE 4.6 mph - N/A   Clear
8:55 PM 1.0 °F -6.7 °F -4.0 °F 79% 30.43 in 10.0 mi SSE 3.5 mph - N/A   Clear
9:15 PM -1.5 °F - -6.5 °F 79% 30.43 in 10.0 mi Calm Calm - N/A   Clear
9:35 PM -0.4 °F - -5.1 °F 81% 30.43 in 10.0 mi Calm Calm - N/A   Clear
9:45 PM 1.4 °F -6.2 °F -4.0 °F 78% 30.43 in 10.0 mi South 3.5 mph - N/A   Clear
9:55 PM -0.2 °F - -5.6 °F 78% 30.43 in 10.0 mi Calm Calm - N/A   Clear
10:15 PM -2.6 °F - -7.8 °F 78% 30.43 in 10.0 mi Calm Calm - N/A   Clear
10:35 PM -0.6 °F -8.5 °F -5.6 °F 79% 30.43 in 10.0 mi SE 3.5 mph - N/A   Clear
10:55 PM 2.7 °F -6.8 °F -2.2 °F 80% 30.41 in 10.0 mi SE 4.6 mph - N/A   Clear
11:15 PM 3.2 °F -6.2 °F -1.7 °F 80% 30.40 in 10.0 mi SSE 4.6 mph - N/A   Clear
11:35 PM 3.6 °F -5.7 °F -1.3 °F 80% 30.40 in 10.0 mi SSE 4.6 mph - N/A   Clear
11:55 PM 3.9 °F -5.3 °F -1.3 °F 79% 30.38 in 10.0 mi SSE 4.6 mph - N/A   Clear